Starlink 36864

operational
NORAD ID: 68045 Int'l Des: 2026-041 Owner: SPXS Country: US Constellation: starlink
NOTLE

Über Starlink 36864

Beschreibung wird geladen...

Live-Position

3D-Globus wird geladen...

Nächste Überflüge

Höhenverlauf

Altitude vs Time

uPlot chart will show altitude changes over time

Zweizeiliger Elementsatz

1 68045C 26041F 26061.44215278 .00472050 00000+0 63419-3 0 617
2 68045 53.1641 99.6778 0008359 277.6800 147.5042 16.05235258 17
Epoch: 2. März 2026 • Age: 25 hours

Aktueller Status

Höhe 264.6 km
Geschwindigkeit 7.75 km/s
Subsatellitenpunkt 36.77°N, 52.78°W
Startdatum 2. März 2026
Alter N/A
Typ internet

Technische Details

Klassifizierung Payload
Masse 575.00 kg
Trockenmasse 530.00 kg
Gesamtmasse 575.00 kg
Länge 0.30 m
Durchmesser 4.10 m
Spannweite 29.00 m
Form Box + pan
Hersteller SPXS
Bus-Typ Starlink V2MO
Phasenstatus In Orbit
Besitzer/Staat SPXS/US

Große Konstellationen

Loading constellations...